User: anonymous   Login
Location: Unspecified
(0.0000°N, 0.0000°E)
Time: 09:58:45
(UTC+00:00)
Language:

IBEX - Orbit

View from above orbital plane
View from above orbital plane
View from above satellite
View from above satellite

Ground track
Ground track

The orbit data is extracted from the following two-line orbital elements,

1 33401U 08051A   17017.55928020 -.00001424 +00000-0 +00000-0 0  9994
2 33401 045.5365 010.2708 5776842 211.3282 000.9754 00.12078712003643
Epoch (UTC): 17 January 2017 13:25:21
Eccentricity: 0.5776842
inclination: 45.5365°
perigee height: 66627 km
apogee height: 266354 km
right ascension of ascending node: 10.2708°
argument of perigee: 211.3282°
revolutions per day: 0.12078712
mean anomaly at epoch: 0.9754°
orbit number at epoch: 364

The dashed part of the orbit path shows where the satellite is in the earth's shadow,  

DLR